Temp
9 9 9 8 8 8 9 10 11 11 11 10 10 10 11 11 12 13 13 14 13 12 12 12 12 12 12 12 11 11 11 11 10 10 10 10 8 7 7 7 6 6 7 7 7 7 6 6 6
9 8 8 8 8 8 9 11 12 11 11 11 11 11 11 12 12 12 12 13 13 12 12 12 11 11 12 11 11 11 11 11 11 10 10 10 9 8 7 7 6 6 6 7 7 7 6 6 6
9 8 7 7 7 8 10 11 11 11 10 11 11 11 11 11 11 12 12 12 12 12 11 11 11 11 11 11 11 11 11 11 11 10 10 9 9 8 7 6 6 6 6 6 6 6 6 6 6
8 7 7 7 8 10 11 11 11 11 10 10 9 11 10 10 11 11 11 11 11 11 11 11 11 11 11 11 11 11 10 10 10 10 10 9 9 8 8 6 6 6 6 6 6 6 6 6 6
8 7 6 6 7 9 10 10 10 10 10 10 9 10 10 10 11 11 11 11 11 11 11 11 11 11 11 11 10 10 10 10 10 10 9 9 8 8 8 7 6 6 6 6 6 6 6 6 6
6 6 5 6 6 8 9 9 9 9 9 9 9 9 9 10 11 10 11 11 11 10 10 10 10 10 10 10 10 10 10 10 10 9 9 9 8 8 8 7 6 5 5 5 5 5 5 6 6
7 6 6 6 5 7 9 9 8 8 8 8 8 9 9 10 11 10 10 11 11 10 10 10 10 10 10 10 10 10 10 10 10 9 9 9 8 8 8 7 6 6 5 5 5 5 5 5 5
6 5 4 5 5 6 8 7 7 7 8 8 8 8 9 10 10 10 10 9 10 10 10 10 9 9 9 10 10 10 10 9 9 9 9 9 8 7 7 7 7 6 6 5 5 5 5 5 5
5 4 4 4 6 6 7 7 6 6 6 6 7 7 8 9 10 10 9 9 9 9 9 9 9 9 9 9 9 9 9 9 9 9 9 9 8 8 7 7 7 6 6 6 5 5 5 5 5
5 5 4 5 5 5 5 6 6 6 6 6 8 7 7 7 9 9 9 9 9 9 9 9 9 9 9 9 9 9 9 9 9 9 9 8 8 8 7 7 7 6 6 6 5 5 5 5 5
4 4 5 4 5 5 5 6 5 5 6 6 7 7 7 7 7 8 8 8 8 9 9 9 9 9 9 9 9 9 8 8 9 9 9 8 8 8 8 7 7 7 6 6 5 5 5 5 4
3 4 4 4 4 4 5 4 6 5 5 7 6 7 7 7 6 7 6 7 7 8 8 8 8 8 8 8 8 8 8 8 8 8 8 8 8 8 8 7 7 7 6 6 5 5 4 4 4
4 4 4 4 4 5 5 5 4 5 6 6 6 6 6 6 7 6 5 6 6 7 7 7 7 7 7 7 7 8 8 7 7 7 8 8 8 7 7 7 7 7 6 6 6 6 5 5 4
4 4 4 4 4 4 4 4 3 5 5 5 5 5 5 5 6 6 6 6 5 6 6 6 6 7 7 7 7 7 7 7 7 7 7 7 7 7 7 7 7 7 6 6 6 6 5 4 4
4 4 3 3 3 3 4 5 5 5 5 6 6 6 6 5 6 6 6 6 6 6 6 6 6 6 6 6 6 7 7 7 7 7 7 7 7 7 7 7 7 6 6 6 6 5 5 4 4
2 2 2 2 2 3 3 4 6 5 5 5 4 5 6 6 6 5 5 6 6 6 6 6 6 6 6 6 6 6 6 6 6 6 6 6 6 7 7 6 6 6 6 5 5 5 5 4 4
1 2 1 1 1 1 1 5 4 5 4 4 5 4 5 5 6 6 6 6 5 5 5 5 6 6 6 6 6 6 6 6 6 6 6 6 6 6 6 6 6 6 6 6 5 5 5 4 4
-0 -0 -1 -1 -0 0 0 4 6 2 2 4 5 4 4 5 6 6 6 5 4 4 5 5 6 6 6 6 6 6 5 5 6 6 6 6 6 6 6 6 6 6 6 6 5 5 5 4 4
-2 -2 -2 -1 -1 -2 -1 0 5 3 1 2 2 3 3 4 5 4 4 4 3 4 4 5 5 5 6 6 6 6 6 6 6 6 6 6 6 6 6 6 6 6 6 6 5 5 5 4 4
-2 -3 -2 -2 -2 -2 -2 -0 1 1 -1 -1 1 2 2 2 3 3 3 3 3 3 4 4 5 5 5 6 7 6 6 6 6 6 6 6 5 5 5 6 5 5 5 5 5 5 5 4 4
-2 -3 -3 -2 -3 -2 -2 -1 -0 -1 -0 0 1 0 -0 -0 1 1 2 2 3 3 3 4 4 5 5 6 6 6 6 5 6 5 5 5 6 5 5 5 5 5 4 5 5 5 5 4 4
-3 -3 -3 -3 -3 -3 -3 -4 -1 -2 -0 -1 0 -1 -1 -1 0 0 1 1 2 3 3 4 4 5 5 5 6 6 6 6 6 5 5 5 5 5 6 5 5 5 5 5 5 5 4 4 4
-4 -3 -3 -3 -4 -4 -3 -4 -2 -3 -1 -2 -2 -2 -1 -1 -1 -0 0 1 2 3 3 4 4 5 5 5 5 6 6 6 6 5 6 6 5 5 5 5 5 5 5 5 5 5 5 4 4
-4 -4 -4 -4 -4 -5 -4 -4 -3 -3 -4 -3 -4 -3 -2 -1 -1 -0 -0 1 2 3 3 4 4 5 5 5 6 6 6 6 6 6 6 6 6 6 5 5 5 5 5 5 5 5 4 4 4
-5 -6 -7 -7 -6 -5 -3 -3 -3 -4 -4 -4 -4 -3 -3 -3 -3 -2 -1 0 2 2 3 4 4 5 5 6 6 6 6 6 6 6 6 6 6 5 5 5 5 4 5 5 5 5 5 4 4
-7 -6 -6 -6 -5 -5 -4 -4 -4 -5 -4 -5 -5 -6 -4 -3 -3 -2 -1 -1 -0 1 2 4 4 5 5 6 6 6 6 6 6 6 6 6 5 5 4 4 4 4 5 5 5 5 5 4 4
-7 -6 -5 -6 -6 -6 -5 -3 -4 -4 -4 -4 -5 -5 -4 -3 -3 -2 -2 -1 -0 1 2 3 3 4 4 5 6 6 6 6 6 6 6 6 5 4 3 3 4 4 5 5 5 5 5 4 4
-6 -6 -6 -7 -8 -6 -4 -4 -6 -5 -4 -5 -6 -5 -5 -5 -3 -2 -2 -1 -1 1 1 2 2 3 3 4 4 5 5 5 5 5 5 5 4 4 3 4 4 4 5 5 5 5 4 4 4
-6 -7 -7 -7 -5 -6 -7 -7 -8 -6 -5 -6 -6 -6 -6 -5 -4 -3 -2 -2 -1 -1 -0 1 2 3 3 4 4 4 4 4 5 5 5 4 4 4 4 4 4 4 4 4 4 4 4 4 4
-7 -7 -7 -8 -5 -4 -3 -7 -7 -6 -6 -6 -6 -6 -6 -5 -4 -3 -2 -1 -0 0 0 1 2 2 3 3 3 4 4 4 5 4 4 4 3 4 3 3 4 4 4 4 4 4 5 4 4
Height
3128 3129 3129 3130 3136 3130 3130 3132 3134 3134 3135 3134 3133 3133 3132 3132 3130 3132 3130 3130 3130 3135 3138 3140 3142 3143 3144 3145 3145 3146 3147 3148 3148 3148 3147 3147 3147 3148 3149 3150 3152 3154 3155 3156 3157 3159 3159 3160 3161
3124 3126 3127 3125 3127 3125 3128 3130 3132 3133 3133 3133 3131 3130 3129 3128 3129 3128 3129 3130 3132 3135 3137 3139 3140 3142 3143 3143 3144 3145 3145 3146 3146 3146 3146 3145 3145 3146 3148 3149 3151 3153 3154 3156 3157 3158 3159 3160 3161
3121 3121 3124 3122 3119 3120 3121 3126 3129 3130 3130 3129 3129 3128 3126 3128 3127 3128 3129 3130 3131 3134 3136 3138 3139 3140 3141 3142 3144 3143 3144 3144 3145 3144 3144 3144 3144 3145 3146 3148 3150 3152 3153 3155 3156 3158 3159 3159 3160
3116 3118 3118 3114 3111 3116 3119 3124 3125 3125 3126 3126 3125 3127 3125 3127 3126 3127 3129 3129 3131 3133 3134 3135 3137 3139 3140 3141 3142 3142 3142 3143 3143 3143 3143 3143 3143 3144 3145 3147 3149 3151 3153 3154 3156 3157 3158 3159 3160
3113 3112 3111 3106 3108 3114 3119 3122 3121 3122 3122 3124 3121 3120 3122 3125 3127 3127 3128 3129 3130 3132 3133 3134 3136 3137 3138 3140 3140 3141 3140 3141 3142 3142 3142 3142 3142 3143 3144 3145 3148 3150 3152 3153 3154 3156 3157 3158 3159
3108 3108 3104 3100 3105 3112 3116 3117 3117 3119 3119 3119 3118 3117 3120 3120 3120 3122 3126 3127 3128 3129 3131 3132 3134 3135 3137 3138 3139 3139 3139 3139 3140 3140 3141 3141 3141 3142 3143 3145 3146 3148 3150 3151 3153 3154 3155 3157 3158
3104 3103 3098 3098 3101 3108 3113 3112 3113 3114 3115 3115 3114 3113 3116 3117 3117 3118 3122 3125 3126 3127 3128 3130 3132 3133 3135 3136 3137 3138 3138 3138 3138 3139 3139 3140 3140 3141 3142 3144 3145 3146 3149 3149 3151 3153 3154 3156 3157
3100 3098 3092 3095 3099 3101 3108 3108 3109 3110 3110 3110 3110 3109 3111 3113 3113 3114 3117 3120 3122 3124 3126 3127 3129 3131 3133 3134 3135 3135 3136 3137 3137 3138 3138 3138 3139 3139 3141 3142 3143 3144 3146 3148 3149 3151 3152 3154 3156
3095 3092 3087 3092 3099 3098 3102 3101 3104 3104 3102 3103 3106 3106 3108 3108 3108 3109 3112 3115 3119 3121 3123 3124 3126 3128 3129 3131 3132 3133 3134 3135 3136 3137 3137 3136 3137 3138 3139 3140 3141 3142 3144 3146 3147 3149 3150 3152 3154
3090 3085 3088 3092 3095 3094 3094 3095 3099 3096 3096 3098 3100 3102 3104 3102 3103 3105 3108 3111 3115 3118 3119 3121 3123 3125 3126 3128 3129 3130 3131 3133 3134 3135 3135 3135 3135 3136 3137 3138 3139 3140 3142 3144 3146 3147 3148 3150 3152
3083 3081 3088 3087 3089 3088 3087 3090 3091 3089 3088 3093 3093 3095 3098 3098 3098 3100 3103 3108 3111 3114 3116 3117 3120 3122 3123 3124 3125 3127 3128 3130 3131 3133 3133 3134 3134 3134 3135 3136 3137 3138 3139 3142 3143 3144 3146 3148 3149
3078 3080 3082 3082 3084 3083 3081 3082 3082 3084 3082 3088 3087 3088 3088 3093 3094 3095 3099 3102 3105 3108 3111 3113 3115 3117 3120 3121 3122 3123 3125 3127 3128 3129 3131 3131 3132 3132 3133 3134 3135 3137 3137 3139 3140 3141 3143 3144 3145
3075 3077 3077 3077 3079 3078 3076 3075 3076 3075 3082 3082 3081 3082 3082 3085 3090 3091 3093 3097 3099 3103 3106 3108 3109 3112 3114 3116 3117 3118 3121 3123 3125 3126 3127 3128 3129 3130 3131 3131 3133 3135 3135 3137 3137 3138 3139 3140 3142
3071 3070 3072 3072 3073 3072 3068 3069 3070 3073 3075 3075 3076 3076 3077 3078 3081 3084 3086 3090 3093 3097 3100 3101 3102 3105 3107 3109 3110 3113 3115 3118 3119 3122 3123 3125 3126 3127 3127 3128 3130 3132 3133 3134 3135 3136 3136 3137 3138
3066 3064 3065 3068 3066 3065 3062 3061 3064 3063 3065 3065 3066 3067 3068 3069 3071 3074 3080 3082 3085 3089 3091 3093 3096 3097 3099 3101 3105 3108 3109 3111 3113 3115 3118 3120 3122 3123 3125 3125 3127 3129 3130 3131 3132 3133 3133 3133 3135
3062 3060 3059 3062 3061 3062 3060 3046 3056 3058 3057 3057 3058 3058 3059 3060 3061 3064 3067 3069 3072 3076 3079 3083 3086 3088 3091 3092 3096 3099 3102 3105 3107 3109 3111 3114 3116 3119 3121 3122 3123 3124 3126 3127 3128 3129 3130 3130 3130
3057 3055 3055 3057 3057 3056 3054 3036 3043 3048 3048 3048 3049 3049 3050 3050 3053 3054 3056 3059 3061 3064 3068 3069 3073 3077 3082 3085 3088 3090 3094 3096 3100 3102 3104 3107 3109 3113 3115 3117 3118 3119 3120 3122 3123 3124 3125 3125 3126
3054 3052 3049 3049 3052 3050 3047 3036 3031 3039 3040 3038 3036 3038 3040 3041 3041 3044 3045 3048 3049 3053 3056 3057 3060 3063 3070 3075 3077 3080 3084 3088 3091 3094 3096 3099 3102 3106 3108 3111 3112 3114 3115 3116 3117 3119 3121 3121 3120
3050 3048 3043 3046 3046 3044 3042 3034 3024 3028 3031 3030 3028 3031 3030 3029 3031 3032 3032 3034 3036 3040 3044 3046 3050 3052 3056 3061 3063 3068 3072 3078 3081 3086 3089 3092 3095 3098 3101 3103 3106 3108 3109 3111 3112 3113 3114 3115 3115
3047 3044 3039 3037 3040 3041 3035 3023 3021 3021 3022 3022 3021 3018 3017 3015 3015 3018 3021 3023 3024 3028 3031 3032 3037 3042 3043 3048 3052 3058 3066 3067 3073 3077 3081 3085 3089 3090 3092 3096 3099 3101 3103 3105 3106 3107 3109 3110 3110
3043 3041 3038 3035 3034 3033 3029 3013 3011 3014 3011 3015 3012 3009 3003 3002 3003 3005 3006 3009 3012 3014 3018 3021 3025 3030 3033 3036 3042 3046 3054 3057 3061 3067 3071 3075 3079 3083 3085 3088 3091 3094 3096 3098 3100 3102 3102 3103 3104
3037 3039 3036 3032 3030 3027 3028 3017 2988 3007 3006 3005 3001 2998 2993 2992 2993 2994 2994 2996 2998 3002 3005 3009 3013 3018 3024 3028 3031 3033 3039 3046 3052 3058 3064 3066 3070 3075 3079 3081 3084 3086 3087 3089 3093 3095 3096 3096 3097
3032 3033 3030 3029 3027 3028 3010 3017 2995 3001 2993 2997 2995 2993 2988 2985 2985 2985 2985 2984 2986 2989 2994 2997 3002 3008 3015 3018 3022 3026 3031 3039 3046 3050 3055 3059 3063 3067 3071 3073 3077 3078 3079 3082 3085 3087 3088 3089 3090
3029 3026 3024 3024 3026 3023 3011 3015 2992 3003 2997 2990 2988 2985 2983 2979 2977 2975 2974 2973 2973 2975 2981 2986 2992 2999 3005 3010 3015 3019 3025 3031 3036 3041 3046 3051 3054 3058 3063 3067 3069 3071 3072 3074 3077 3080 3081 3082 3082
3022 3022 3024 3022 3020 3013 3010 3009 3002 2995 2994 2989 2983 2978 2975 2972 2970 2968 2965 2962 2962 2964 2970 2976 2982 2989 2996 3002 3007 3012 3018 3023 3029 3033 3038 3042 3046 3050 3055 3058 3061 3064 3065 3066 3069 3072 3073 3074 3074
3017 3022 3025 3018 3013 3011 3010 3003 2996 2993 2991 2987 2981 2975 2969 2966 2964 2962 2959 2957 2957 2959 2962 2967 2973 2980 2988 2994 3000 3004 3010 3016 3021 3026 3030 3034 3039 3044 3048 3050 3052 3055 3056 3057 3061 3063 3065 3066 3066
3012 3014 3016 3016 3013 3011 3002 2996 2993 2991 2988 2983 2978 2973 2964 2960 2958 2958 2956 2954 2956 2957 2960 2964 2968 2974 2981 2986 2991 2996 3003 3009 3014 3018 3022 3026 3030 3035 3038 3042 3044 3046 3047 3049 3052 3055 3057 3058 3058
3006 3011 3013 3012 3011 3005 2993 2992 2989 2985 2981 2980 2975 2969 2962 2958 2953 2952 2952 2951 2951 2953 2957 2961 2965 2970 2975 2980 2984 2989 2995 3001 3005 3010 3015 3019 3022 3027 3031 3033 3036 3037 3040 3041 3044 3047 3048 3048 3049
3004 3004 3006 3007 3003 2997 2994 2993 2988 2984 2981 2977 2973 2968 2961 2957 2950 2948 2945 2944 2946 2948 2952 2957 2960 2964 2969 2973 2977 2983 2989 2994 2999 3003 3009 3012 3016 3019 3023 3025 3026 3029 3031 3033 3036 3039 3040 3039 3040
2996 3000 3002 3003 2995 2991 2988 2991 2987 2984 2980 2977 2972 2968 2962 2956 2951 2948 2941 2940 2945 2949 2952 2955 2958 2960 2962 2967 2972 2977 2982 2987 2991 2996 3001 3005 3008 3012 3014 3015 3018 3022 3025 3027 3029 3031 3031 3030 3029
Wind_Speed
20 20 18 18 13 10 14 16 15 14 8 4 4 11 12 8 8 12 12 12 14 17 14 16 13 8 5 1 3 6 9 10 11 12 14 13 13 12 10 8 8 9 8 7 7 6 6 7 7
21 21 21 19 16 19 19 22 16 13 15 15 11 14 12 10 10 17 19 7 12 14 16 15 13 9 6 1 4 6 6 8 11 12 12 12 13 12 11 9 9 9 8 7 7 7 8 8 8
22 21 22 18 23 28 29 25 22 20 13 17 16 13 12 5 8 17 13 7 9 8 16 16 13 10 6 4 9 5 3 6 10 11 11 11 11 11 11 10 10 9 9 8 8 8 8 8 8
23 23 25 27 27 16 17 9 8 14 12 11 15 14 12 8 11 10 14 9 11 11 15 17 14 10 4 7 7 4 3 5 8 8 9 9 10 11 10 11 11 11 9 10 9 9 7 7 7
24 26 30 28 30 30 25 22 23 20 21 19 20 23 17 13 12 10 10 11 12 13 14 17 13 9 7 7 6 6 4 5 6 7 7 8 9 10 10 11 13 13 13 12 11 10 8 7 7
25 26 28 30 33 29 25 25 25 23 24 25 24 23 16 11 13 12 15 19 17 15 14 14 12 12 9 8 9 8 4 3 5 6 7 8 8 9 10 11 13 13 14 14 13 11 9 9 7
25 28 35 33 32 28 24 26 24 24 25 26 25 24 17 12 15 14 18 19 18 15 19 16 15 13 11 10 10 9 7 5 5 4 6 7 8 9 11 12 13 14 13 15 14 13 11 9 9
27 30 36 34 31 33 25 28 27 25 27 26 23 19 20 12 13 15 20 20 18 20 19 19 17 15 14 12 10 13 11 9 6 5 5 6 7 8 10 11 14 16 15 14 15 14 12 12 10
27 32 38 35 31 32 26 28 23 22 23 28 27 25 18 17 12 19 23 25 23 24 21 20 21 19 18 17 14 16 14 11 9 7 5 5 6 7 8 10 12 14 15 15 16 15 13 12 10
28 36 34 32 29 30 29 29 24 29 27 27 28 27 22 17 17 16 23 27 27 26 24 22 22 23 22 21 19 19 18 15 12 10 9 5 5 6 8 10 11 13 15 15 17 17 16 15 14
32 36 30 33 31 31 33 29 27 31 32 25 26 29 28 21 19 20 23 29 28 27 27 24 24 25 26 25 24 22 21 19 17 13 12 9 7 6 7 8 10 11 13 14 16 17 17 16 16
30 31 29 32 30 31 33 34 32 31 34 27 27 28 30 31 21 20 26 30 31 28 26 25 28 30 29 27 28 26 25 23 22 18 17 13 10 7 7 7 8 9 9 11 13 15 16 17 17
30 29 29 31 30 32 34 36 36 36 28 27 29 28 29 32 30 23 20 32 33 32 31 28 28 29 30 29 29 30 30 28 26 24 21 20 15 11 10 8 8 7 7 7 8 11 14 16 16
28 30 29 30 29 30 35 36 34 31 27 28 29 30 30 33 34 33 29 26 29 32 38 36 34 31 30 30 31 29 31 32 33 30 26 25 21 17 14 12 10 10 8 8 7 8 12 15 18
26 30 28 27 25 23 27 33 28 23 24 29 30 31 33 34 37 38 36 35 34 32 33 39 42 40 36 36 33 31 30 30 30 35 33 30 27 22 18 17 14 13 12 11 12 12 12 15 17
29 31 31 21 22 23 28 43 35 36 35 34 34 34 35 36 39 38 39 41 41 40 38 40 41 44 42 39 37 34 31 28 25 27 37 34 32 27 24 21 19 17 16 16 16 16 16 16 15
25 24 25 26 25 21 21 47 36 34 38 40 40 40 41 39 40 42 44 43 43 41 40 43 44 44 45 43 40 40 35 31 28 25 29 38 36 32 30 26 24 21 20 20 19 19 18 18 18
22 25 27 27 28 30 33 46 49 43 42 46 47 46 45 45 47 45 45 44 42 38 36 38 45 49 47 45 46 46 42 37 35 30 28 33 38 36 34 32 29 27 25 24 23 22 21 21 21
20 23 28 29 27 30 31 42 52 49 45 46 47 45 47 48 51 47 46 44 37 40 35 34 34 40 49 54 52 49 48 44 40 34 29 33 37 39 38 38 34 32 30 27 26 25 26 24 22
16 23 30 34 14 31 37 50 52 53 46 45 49 49 48 49 49 47 45 44 37 37 42 37 35 33 41 50 58 53 48 48 45 38 34 34 36 37 39 40 38 35 34 31 30 28 28 26 25
25 23 28 36 34 37 40 48 46 45 54 47 47 42 43 43 43 43 41 45 45 37 37 41 36 36 30 42 53 54 52 48 41 38 38 36 38 38 34 34 36 37 37 35 31 30 29 28 26
28 27 29 34 34 22 26 22 72 39 46 51 30 32 32 37 35 34 38 43 47 43 37 41 40 38 33 29 40 51 52 52 44 40 36 36 36 38 35 34 32 32 37 36 32 29 29 29 29
24 22 24 27 28 29 43 19 42 45 50 27 35 30 29 30 34 39 40 42 46 45 45 39 39 39 35 33 32 40 43 46 37 33 35 35 35 37 34 29 27 25 33 34 32 30 31 30 31
27 29 28 27 26 14 37 26 35 27 23 32 31 33 32 30 32 31 29 28 33 39 44 40 39 35 35 32 30 32 37 39 37 37 36 35 35 36 33 29 28 24 28 34 32 32 32 33 34
10 7 5 4 3 6 21 17 19 20 19 19 26 17 24 25 26 25 29 31 27 28 29 31 30 31 33 32 32 32 34 35 34 31 33 32 33 31 31 31 30 28 30 35 34 34 34 35 36
17 15 6 5 2 6 28 10 9 14 20 19 21 12 17 26 19 15 18 19 23 21 23 24 24 23 29 30 36 38 33 32 31 32 31 32 33 29 29 31 31 32 34 34 35 35 37 38 37
5 14 22 19 22 11 9 16 19 17 18 20 18 14 6 18 24 22 26 10 22 20 19 23 25 30 31 30 35 42 39 33 32 29 29 32 32 32 35 33 33 36 33 33 32 35 37 36 38
18 9 3 7 3 5 8 7 7 17 20 21 20 19 11 9 10 19 21 29 19 20 20 20 21 27 30 32 29 33 33 39 30 29 29 33 35 33 34 35 36 34 30 29 31 33 34 37 38
7 14 14 14 13 3 2 1 11 15 17 22 21 20 16 17 12 1 10 23 20 10 13 15 20 23 26 29 31 32 27 33 32 33 32 32 32 32 37 35 31 31 29 29 31 32 34 35 38
18 19 17 7 3 12 6 2 10 14 14 16 18 16 13 15 16 15 8 15 9 10 14 18 16 18 18 24 31 30 32 36 34 30 33 33 32 34 34 29 28 29 26 28 30 32 34 36 37
Wind_Direction
264 264 261 262 255 233 247 257 268 287 336 355 334 313 292 275 281 287 314 311 199 209 216 212 204 212 228 202 42 5 345 333 318 305 296 290 282 279 273 251 222 222 222 224 229 233 225 216 216
255 259 256 250 239 233 253 267 274 292 291 281 262 279 261 253 283 294 305 283 226 207 209 209 205 217 244 288 341 344 343 338 324 310 302 293 284 272 266 246 226 223 221 225 227 227 223 223 226
256 249 254 249 246 241 255 270 275 278 284 271 267 262 270 252 287 301 292 263 205 227 206 206 211 223 223 285 312 314 342 341 328 314 303 291 284 268 259 239 228 225 225 225 228 230 228 229 231
252 249 248 241 242 248 262 279 289 264 263 266 268 242 265 267 258 276 286 255 230 221 208 209 210 212 241 309 311 304 322 330 328 317 306 290 281 271 253 232 227 224 223 233 235 237 231 229 233
248 246 244 246 247 256 266 268 261 262 270 268 276 261 269 258 249 265 262 273 249 241 214 207 208 221 261 286 291 276 290 319 321 317 308 292 280 272 255 234 230 228 231 237 239 239 237 236 239
244 245 245 248 256 260 265 268 269 264 269 270 270 268 266 261 237 229 264 275 266 229 223 209 228 249 263 255 268 257 246 285 308 310 306 297 278 270 261 241 230 231 234 239 243 242 239 241 242
251 250 253 255 258 262 267 269 274 273 268 268 269 270 261 242 223 226 240 260 262 240 215 223 237 244 236 240 256 244 252 262 285 293 297 298 281 266 266 247 236 234 234 237 244 249 245 245 241
253 253 253 256 262 268 269 273 275 271 266 264 266 265 260 248 224 227 229 224 233 228 229 226 236 236 239 243 256 252 248 240 262 269 279 292 283 265 262 251 244 241 240 244 249 249 255 261 257
254 251 254 258 269 277 276 277 273 274 271 262 258 259 270 258 240 225 217 214 225 227 228 234 236 239 240 230 239 243 234 242 255 266 254 281 281 267 259 257 253 250 246 249 253 258 261 263 257
253 255 262 273 276 276 274 272 277 273 268 260 255 250 250 266 246 232 220 218 223 225 232 241 246 241 241 233 240 241 235 238 243 259 255 253 266 261 255 254 252 249 251 252 254 261 263 266 266
254 258 270 272 275 276 278 276 272 271 267 263 255 249 239 240 245 228 223 221 223 230 233 239 250 247 240 238 243 248 243 239 241 248 256 245 246 255 255 259 264 255 251 253 257 264 269 270 268
260 264 269 272 273 273 274 276 268 264 268 269 261 251 242 231 235 232 222 225 228 233 235 242 245 243 244 244 248 248 250 246 246 246 249 249 239 239 241 247 255 255 253 252 255 261 266 266 263
261 267 266 270 274 275 275 273 277 270 272 269 269 260 252 243 230 231 234 229 236 232 233 240 244 243 242 248 253 251 250 250 250 249 248 251 247 230 228 228 232 237 238 248 255 265 267 271 265
268 271 272 274 276 278 281 281 276 282 283 274 269 268 262 256 249 232 235 234 241 245 238 232 235 242 247 250 254 250 249 253 252 250 248 250 251 242 225 221 223 228 225 235 248 260 268 270 272
271 275 278 285 283 291 288 284 288 283 275 274 268 260 255 254 250 250 241 242 244 246 248 243 240 236 238 242 244 248 252 261 260 253 245 245 249 249 238 225 224 230 230 243 255 266 270 274 275
277 279 279 268 273 282 288 279 278 281 283 275 275 272 263 254 254 255 253 247 248 253 250 246 246 239 240 239 240 243 251 254 256 259 246 239 242 246 245 237 231 231 236 246 252 263 266 272 277
279 278 284 288 293 294 294 278 280 277 279 280 277 275 273 265 253 256 255 253 253 257 256 253 243 244 240 237 238 240 244 247 251 258 254 238 237 241 245 244 241 236 239 248 251 257 264 269 277
288 288 287 288 294 293 291 278 275 288 289 283 281 280 279 275 266 259 254 256 258 256 249 250 248 241 238 240 235 240 243 242 248 250 248 241 236 237 241 244 245 243 242 249 254 256 262 268 276
280 285 289 291 302 302 298 289 279 287 295 293 288 290 286 278 273 267 262 256 254 252 240 237 240 241 236 236 241 237 241 244 247 246 242 243 239 235 237 241 244 246 249 251 254 256 259 267 275
280 289 290 298 302 303 299 289 286 291 299 300 301 293 289 281 271 263 255 251 247 250 241 235 241 245 244 238 240 242 241 245 248 249 240 244 243 236 236 239 242 246 249 252 254 260 263 266 272
276 280 288 290 303 295 298 291 289 294 298 304 305 308 297 291 276 272 262 255 250 250 244 242 243 245 246 238 234 238 235 236 243 240 243 240 239 237 237 236 240 245 248 250 255 260 265 267 271
285 286 287 291 300 298 291 292 294 309 306 309 312 312 299 288 281 277 275 267 260 252 247 242 243 245 248 238 237 236 235 235 237 240 246 242 235 236 243 241 240 247 248 248 251 257 264 265 268
286 293 288 284 286 299 287 289 285 307 313 313 304 307 300 285 272 272 276 271 262 260 252 248 247 244 244 240 243 238 229 233 236 240 244 249 236 234 241 242 243 255 247 242 246 254 261 265 267
290 287 281 277 278 264 277 273 293 310 303 304 303 292 284 275 272 277 275 273 261 257 256 247 247 239 239 240 240 236 234 235 235 233 238 243 235 239 236 247 246 259 258 241 246 253 258 264 264
282 320 328 311 206 246 299 279 267 292 303 297 300 275 270 273 273 272 279 290 266 248 253 248 245 237 232 235 235 232 234 235 233 233 233 235 233 235 240 249 254 262 266 247 245 250 256 262 263
291 287 230 263 249 295 305 266 269 301 299 311 295 303 273 255 261 266 277 276 257 235 231 237 231 218 231 232 234 231 229 223 227 235 232 232 235 239 244 251 261 270 259 243 243 248 255 259 264
275 252 272 253 274 282 249 258 249 274 309 315 322 317 297 259 250 252 259 311 249 228 223 220 215 221 224 229 232 234 230 224 227 233 228 225 226 232 233 246 258 266 249 236 239 248 254 258 265
244 263 243 204 233 233 249 230 313 324 328 330 339 330 336 333 228 254 263 260 250 227 224 227 220 221 222 218 223 229 231 225 216 212 225 230 226 231 239 249 260 251 241 237 244 247 253 260 269
269 245 231 241 245 233 299 296 311 325 325 337 339 336 342 347 23 278 220 224 220 233 228 224 239 231 225 225 228 228 229 220 215 224 229 230 229 235 248 256 247 240 241 242 242 248 258 268 271
236 246 266 282 232 226 256 200 329 324 334 328 330 340 352 343 359 359 30 96 163 203 230 244 239 228 226 224 220 222 219 222 221 221 226 227 233 244 255 253 235 229 237 245 253 263 270 274 276